Content
SEND FEEDBACK

Daily
Averages
Monthly
Summary
Canada

SOREL, QUEBEC


Home > North America > Canada > Quebec
Elevation: 49 feet     Latitude: 46 28N     Longitude: 073 45W

WEATHER
 
SELECT A DAY
Number of Records: 198,744;   Date Range: 1/1/95 - 9/15/14
 
SHARE

PRINT THIS DATA

[ ← Previous Day ]
WEATHER ALMANAC - APRIL 25, 2014
[ Next Day → ]
[ °C ]   °F
Weather ElementAverageHighLow
Temperature44.2 °F53.6 °F (4:00 pm)32 °F (6:00 am)
Dewpoint19.2 °F23 °F (10:00 pm)15.8 °F (3:00 am)
Humidity36 %55 % (6:00 am)15 % (2:00 pm)
Barometer29.96 in30.09 in (7:00 am)29.81 in (10:00 pm)
Wind Speed9.1 mph18.4 mph (10:00 pm)
Wind Gust24.2 mph (10:00 pm)
Weather ElementAverage
Visibility25.1 mi
Wind DirectionSSE (140.7 °)

Weather ElementTotal
Precipitation---
Heating Degree Days22.2 (Base 65)
Averaged from 27 records on April 25, 2014
WEATHER CONDITIONS BREAKOUT
WIND DIRECTION BREAKOUT
WEATHER BY HOUR - APRIL 25, 2014
[ °C ]   °F
Local TimeTemperatureDewpointHumidityBarometerVisibilityWind DirectionWind SpeedGust SpeedPrecipitationEventsConditions
1:00 AM41.0 °F17.6 °F39 %30.02 in15.0 miNNW (330°)6.9 mphClear
2:00 AM38.0 °F18.0 °F31 %30.02 in15.0 miNorth (350°)9.2 mph
2:00 AM37.4 °F17.6 °F45 %30.02 in15.0 miNorth (350°)9.2 mphClear
3:00 AM37.4 °F15.8 °F41 %30.03 in15.0 miNorth (350°)9.2 mphClear
4:00 AM35.6 °F17.6 °F48 %30.04 in15.0 miNNW (340°)5.8 mphClear
5:00 AM35.6 °F17.6 °F48 %30.04 in15.0 miNNW (340°)5.8 mphClear
6:00 AM32.0 °F17.6 °F55 %30.07 in30.0 miNW (310°)2.3 mphPartly Cloudy
7:00 AM37.4 °F19.4 °F48 %30.09 in30.0 miNorth (360°)8.1 mphScattered Clouds
8:00 AM38.0 °F20.0 °F36 %30.08 in28.0 miNNE (20°)9.2 mphScattered Clouds
8:00 AM39.2 °F21.2 °F49 %30.08 in30.0 miNNE (20°)10.4 mphMostly Cloudy
9:00 AM41.0 °F21.2 °F45 %30.08 in30.0 miNNE (30°)9.2 mphMostly Cloudy
10:00 AM41.0 °F19.4 °F42 %30.07 in30.0 miNorth (10°)5.8 mphMostly Cloudy
11:00 AM42.8 °F17.6 °F36 %30.04 in30.0 miVariable6.9 mphMostly Cloudy
12:00 PM46.4 °F21.2 °F37 %30.01 in30.0 miVariable4.6 mphMostly Cloudy
1:00 PM48.2 °F17.6 °F30 %29.98 in30.0 miSE (140°)8.1 mphMostly Cloudy
2:00 PM49.0 °F16.0 °F15 %29.95 in28.0 miENE (70°)4.6 mphScattered Clouds
2:00 PM50.0 °F15.8 °F26 %29.95 in30.0 miESE (110°)3.5 mphMostly Cloudy
3:00 PM50.0 °F17.6 °F28 %29.93 in35.0 miEast (80°)8.1 mphMostly Cloudy
4:00 PM53.6 °F21.2 °F28 %29.89 in30.0 miESE (110°)6.9 mphMostly Cloudy
5:00 PM53.6 °F19.4 °F26 %29.86 in35.0 miEast (90°)9.2 mphMostly Cloudy
6:00 PM53.6 °F21.2 °F28 %29.84 in30.0 miENE (70°)11.5 mphMostly Cloudy
7:00 PM50.0 °F21.2 °F32 %29.84 in30.0 miNE (50°)11.5 mphOvercast
8:00 PM49.0 °F21.0 °F21 %29.83 in28.0 miNE (50°)16.1 mphOvercast
8:00 PM50.0 °F21.2 °F32 %29.83 in30.0 miNE (50°)16.1 mphOvercast
9:00 PM48.2 °F19.4 °F32 %29.82 in15.0 miENE (60°)16.1 mphOvercast
10:00 PM48.2 °F23.0 °F37 %29.81 in15.0 miNE (50°)18.4 mph24.2 mphOvercast
11:00 PM48.2 °F23.0 °F37 %29.81 in15.0 miENE (60°)12.7 mphOvercast
Hourly data recorded from CYUL, located miles away from Sorel, Quebec







STORIES FROM OUR PARTNERS